• In Hungary
  • List of Countries
  • For 7 days
  • Water Temperature
  • Satellite Maps
  • Weather Map
  • News
  • Weather Widgets
  • user-avatar
    Login

    Hourly Weather Vrchlabi

    Today, 19 September, Wednesday

    Time Temperature Precipitation Wind Pressure Humidity
    00:00 +17°C° 0 mm 3 mps 719 mmHg 71%
    01:00 +16°C° 0 mm 3 mps 719 mmHg 71%
    02:00 +16°C° 0 mm 3 mps 719 mmHg 72%
    03:00 +14°C° 0 mm 3 mps 719 mmHg 72%
    04:00 +15°C° 0 mm 2 mps 719 mmHg 73%
    05:00 +15°C° 0 mm 2 mps 719 mmHg 72%
    06:00 +16°C° 0 mm 2 mps 719 mmHg 71%
    07:00 +16°C° 0 mm 2 mps 719 mmHg 71%
    08:00 +18°C° 0 mm 2 mps 720 mmHg 66%
    09:00 +20°C° 0 mm 2 mps 720 mmHg 61%
    10:00 +23°C° 0 mm 2 mps 721 mmHg 56%
    11:00 +24°C° 0 mm 2 mps 721 mmHg 53%
    12:00 +25°C° 0 mm 2 mps 721 mmHg 51%
    13:00 +26°C° 0 mm 2 mps 721 mmHg 49%
    14:00 +26°C° 0 mm 1 mps 721 mmHg 49%
    15:00 +26°C° 0 mm 1 mps 721 mmHg 49%
    16:00 +26°C° 0 mm 1 mps 721 mmHg 49%
    17:00 +24°C° 0 mm 1 mps 721 mmHg 56%
    18:00 +22°C° 0 mm 1 mps 721 mmHg 63%
    19:00 +20°C° 0 mm 1 mps 720 mmHg 70%
    20:00 +20°C° 0 mm 1 mps 721 mmHg 72%
    21:00 +19°C° 0 mm 1 mps 721 mmHg 75%
    22:00 +18°C° 0 mm 2 mps 721 mmHg 77%
    23:00 +17°C° 0 mm 2 mps 721 mmHg 79%

    Tomorrow, 20 September, Thursday

    Time Temperature Precipitation Wind Pressure Humidity
    00:00 +17°C° 0 mm 2 mps 721 mmHg 80%
    01:00 +17°C° 0 mm 2 mps 721 mmHg 82%
    02:00 +16°C° 0 mm 1 mps 720 mmHg 83%
    03:00 +16°C° 0 mm 1 mps 720 mmHg 84%
    04:00 +16°C° 0 mm 1 mps 720 mmHg 85%
    05:00 +16°C° 0 mm 1 mps 720 mmHg 84%
    06:00 +18°C° 0 mm 1 mps 721 mmHg 82%
    07:00 +18°C° 0 mm 1 mps 721 mmHg 80%
    08:00 +20°C° 0 mm 1 mps 721 mmHg 72%
    09:00 +22°C° 0 mm 1 mps 722 mmHg 65%
    10:00 +25°C° 0 mm 1 mps 722 mmHg 57%
    11:00 +25°C° 0 mm 1 mps 722 mmHg 54%
    12:00 +26°C° 0 mm 2 mps 721 mmHg 50%
    13:00 +27°C° 0 mm 2 mps 721 mmHg 46%
    14:00 +27°C° 0 mm 2 mps 721 mmHg 46%
    15:00 +27°C° 0 mm 2 mps 721 mmHg 46%
    16:00 +27°C° 0 mm 1 mps 720 mmHg 46%
    17:00 +25°C° 0 mm 1 mps 720 mmHg 52%
    18:00 +23°C° 0 mm 1 mps 720 mmHg 59%
    19:00 +21°C° 0 mm 1 mps 720 mmHg 65%
    20:00 +20°C° 0 mm 1 mps 719 mmHg 67%
    21:00 +19°C° 0 mm 2 mps 719 mmHg 69%
    22:00 +18°C° 0 mm 2 mps 719 mmHg 70%
    23:00 +18°C° 0 mm 2 mps 719 mmHg 73%

    Day after tomorrow, 21 September, Friday

    Time Temperature Precipitation Wind Pressure Humidity
    00:00 +17°C° 0 mm 2 mps 719 mmHg 75%
    01:00 +17°C° 0 mm 2 mps 718 mmHg 77%
    02:00 +17°C° 0 mm 2 mps 718 mmHg 79%
    03:00 +16°C° 0 mm 2 mps 718 mmHg 80%
    04:00 +16°C° 0 mm 2 mps 717 mmHg 82%
    05:00 +16°C° 0 mm 2 mps 717 mmHg 79%
    06:00 +17°C° 0 mm 3 mps 717 mmHg 76%
    07:00 +17°C° 0 mm 3 mps 717 mmHg 73%
    08:00 +19°C° 0 mm 4 mps 717 mmHg 65%
    09:00 +21°C° 0 mm 4 mps 717 mmHg 58%
    10:00 +23°C° 0 mm 5 mps 717 mmHg 50%
    11:00 +25°C° 0 mm 5 mps 717 mmHg 47%
    12:00 +26°C° 0 mm 6 mps 717 mmHg 44%
    13:00 +27°C° 0 mm 6 mps 716 mmHg 42%
    14:00 +27°C° 0 mm 6 mps 716 mmHg 43%
    15:00 +27°C° 0 mm 5 mps 715 mmHg 44%
    16:00 +27°C° 0 mm 5 mps 715 mmHg 45%
    17:00 +25°C° 0 mm 5 mps 714 mmHg 50%
    18:00 +22°C° 0 mm 4 mps 714 mmHg 55%
    19:00 +21°C° 0 mm 4 mps 714 mmHg 59%
    20:00 +20°C° 0 mm 3 mps 714 mmHg 62%
    21:00 +20°C° 0 mm 3 mps 714 mmHg 64%
    22:00 +19°C° 0 mm 3 mps 714 mmHg 66%
    23:00 +18°C° 0 mm 3 mps 715 mmHg 69%

    22 September, Saturday

    Time Temperature Precipitation Wind Pressure Humidity
    00:00 +18°C° 0 mm 3 mps 715 mmHg 71%
    01:00 +17°C° 0 mm 3 mps 715 mmHg 73%
    02:00 +16°C° 1 mm 3 mps 716 mmHg 78%
    03:00 +14°C° 1 mm 4 mps 716 mmHg 83%
    04:00 +13°C° 1 mm 4 mps 717 mmHg 88%
    05:00 +12°C° 0.5 mm 4 mps 718 mmHg 86%
    06:00 +11°C° 0.5 mm 4 mps 719 mmHg 85%
    07:00 +11°C° 0.5 mm 4 mps 719 mmHg 83%
    08:00 +11°C° 0 mm 4 mps 720 mmHg 76%
    09:00 +11°C° 0 mm 4 mps 721 mmHg 69%
    10:00 +11°C° 0 mm 4 mps 721 mmHg 62%
    11:00 +12°C° 0 mm 4 mps 721 mmHg 58%
    12:00 +12°C° 0 mm 3 mps 722 mmHg 55%
    13:00 +13°C° 0 mm 3 mps 722 mmHg 51%
    14:00 +13°C° 0 mm 3 mps 722 mmHg 49%
    15:00 +13°C° 0 mm 4 mps 722 mmHg 46%
    16:00 +14°C° 0 mm 4 mps 721 mmHg 44%
    17:00 +12°C° 0 mm 3 mps 722 mmHg 49%
    18:00 +11°C° 0 mm 3 mps 722 mmHg 54%
    19:00 +9°C° 0 mm 2 mps 722 mmHg 60%
    20:00 +9°C° 0 mm 2 mps 722 mmHg 62%
    21:00 +8°C° 0 mm 2 mps 722 mmHg 64%
    22:00 +9°C° 0 mm 1 mps 722 mmHg 66%
    23:00 +8°C° 0 mm 1 mps 722 mmHg 68%

    23 September, Sunday

    Time Temperature Precipitation Wind Pressure Humidity
    00:00 +8°C° 0 mm 1 mps 722 mmHg 70%
    01:00 +8°C° 0 mm 1 mps 723 mmHg 71%
    02:00 +7°C° 0 mm 1 mps 722 mmHg 73%
    03:00 +7°C° 0 mm 1 mps 722 mmHg 75%
    04:00 +7°C° 0 mm 1 mps 722 mmHg 76%
    05:00 +7°C° 0 mm 1 mps 722 mmHg 75%
    06:00 +8°C° 0 mm 1 mps 722 mmHg 74%
    07:00 +8°C° 0 mm 1 mps 722 mmHg 73%
    08:00 +9°C° 0 mm 2 mps 722 mmHg 65%
    09:00 +11°C° 0 mm 3 mps 721 mmHg 57%
    10:00 +13°C° 0 mm 4 mps 721 mmHg 49%
    11:00 +14°C° 0 mm 4 mps 720 mmHg 46%
    12:00 +15°C° 0 mm 5 mps 719 mmHg 43%
    13:00 +16°C° 0 mm 6 mps 718 mmHg 41%
    14:00 +15°C° 0 mm 6 mps 717 mmHg 43%
    15:00 +15°C° 0 mm 6 mps 716 mmHg 45%
    16:00 +15°C° 0 mm 6 mps 715 mmHg 48%
    17:00 +14°C° 0.3 mm 5 mps 714 mmHg 52%
    18:00 +13°C° 0.3 mm 5 mps 713 mmHg 56%
    19:00 +12°C° 0.3 mm 5 mps 712 mmHg 61%
    20:00 +12°C° 0.5 mm 5 mps 711 mmHg 61%
    21:00 +11°C° 0.5 mm 6 mps 710 mmHg 61%
    22:00 +11°C° 0.5 mm 6 mps 709 mmHg 60%
    23:00 +11°C° 0.2 mm 6 mps 709 mmHg 62%

    24 September, Monday

    Time Temperature Precipitation Wind Pressure Humidity
    00:00 +11°C° 0.2 mm 6 mps 709 mmHg 63%
    01:00 +12°C° 0.2 mm 5 mps 709 mmHg 65%
    02:00 +10°C° 0.5 mm 5 mps 709 mmHg 71%
    03:00 +10°C° 0.5 mm 5 mps 709 mmHg 77%
    04:00 +10°C° 0.5 mm 5 mps 709 mmHg 83%
    05:00 +9°C° 0.4 mm 5 mps 709 mmHg 84%
    06:00 +9°C° 0.4 mm 5 mps 709 mmHg 84%
    07:00 +8°C° 0.4 mm 6 mps 709 mmHg 85%
    08:00 +8°C° 0.3 mm 6 mps 709 mmHg 82%
    09:00 +9°C° 0.3 mm 7 mps 709 mmHg 80%
    10:00 +9°C° 0.3 mm 7 mps 708 mmHg 77%
    11:00 +9°C° 0 mm 8 mps 708 mmHg 74%
    12:00 +10°C° 0 mm 8 mps 707 mmHg 71%
    13:00 +11°C° 0 mm 9 mps 707 mmHg 68%
    14:00 +10°C° 0.3 mm 9 mps 707 mmHg 73%
    15:00 +10°C° 0.3 mm 8 mps 707 mmHg 77%
    16:00 +10°C° 0.3 mm 8 mps 707 mmHg 82%
    17:00 +9°C° 0.3 mm 8 mps 708 mmHg 82%
    18:00 +7°C° 0.3 mm 8 mps 709 mmHg 83%
    19:00 +7°C° 0.3 mm 9 mps 710 mmHg 83%
    20:00 +6°C° 0.1 mm 8 mps 712 mmHg 82%
    21:00 +6°C° 0.1 mm 8 mps 713 mmHg 81%
    22:00 +5°C° 0.1 mm 8 mps 714 mmHg 80%
    23:00 +5°C° 0 mm 8 mps 714 mmHg 79%
    Show more